Regional Weather Roundup
Issued by NWS Upton, NY

Current Version | Previous Version | Text Only | Print | Product List | Glossary On
Versions: 1 2 3 4 5 6 7 8 9 10 11 12 13 14 15 16 17 18 19 20 21 22 23 24 25 26 27 28 29 30 31 32 33 34 35
000
ASUS41 KOKX 191408
RWROKX

REGIONAL WEATHER ROUNDUP
NATIONAL WEATHER SERVICE NEW YORK NY
900 AM EST SUN NOV 19 2017

NOTE: "FAIR" INDICATES FEW OR NO CLOUDS BELOW 12,000 FEET WITH NO
SIGNIFICANT WEATHER AND/OR OBSTRUCTIONS TO VISIBILITY.

NYZ071-072-176-178-NJZ106-104-191500-
NEW YORK CITY METRO AREA

CITY           SKY/WX    TMP DP  RH WIND       PRES   REMARKS
Central Park   PTSUNNY   53  41  63 W8G25     29.35R
Bronx Bot Gard   N/A     54  39  58 NW25      29.32R
LaGuardia APRT CLOUDY    54  40  59 W25G40    29.31R
Kennedy INTL   CLOUDY    53  43  68 W22G41    29.34R
Breezy Point     N/A     52 N/A N/A W23G37      N/A
Newark/Liberty PTSUNNY   52  41  66 W23G32    29.34R
Teterboro      CLOUDY    53  41  63 W15G25    29.32R
$$

NYZ177-179-078>081-191500-
LONG ISLAND NEW YORK

CITY           SKY/WX    TMP DP  RH WIND       PRES   REMARKS
Jones Beach      N/A     52 N/A N/A W24G35      N/A
Matinecock PT    N/A     54 N/A N/A W39G46      N/A
Farmingdale    CLOUDY    55  46  71 W18G28    29.29R
MacArthur/ISP  CLOUDY    56  53  90 W16G30    29.25R
Shirley        LGT RAIN  57  55  93 SW15G30   29.25R
Mt Sinai Harb    N/A     55 N/A N/A SW9G17      N/A
Westhampton    LGT RAIN  58  54  86 SW18G31   29.25F
East Hampton   DRIZZLE   58  56  92 SW15G31   29.24S
Southold       NOT AVBL
Montauk        NOT AVBL
$$

NYZ052-065-067-191500-
HUDSON VALLEY

CITY           SKY/WX    TMP DP  RH WIND       PRES   REMARKS
White Plains   CLOUDY    52  42  69 W22G30    29.27R
Larchmont Harb   N/A     54 N/A N/A W28G37      N/A
Croton On Huds   N/A     52 N/A N/A W30G43      N/A
Newburgh       PTSUNNY   48  41  76 W32G47    29.30R
Montgomery     CLOUDY    47  38  71 W21G35    29.32R
Poughkeepsie   CLOUDY    50  37  61 W23G32    29.28R
Albany         CLOUDY    43  32  65 W29G56    29.23R
$$

NJZ001-105-106-008-010-013-015-019>022-104-191500-
NEW JERSEY

CITY           SKY/WX    TMP DP  RH WIND       PRES   REMARKS
Newark/Liberty PTSUNNY   52  41  66 W23G32    29.34R
Teterboro      CLOUDY    53  41  63 W15G25    29.32R
Caldwell       LGT RAIN  51  40  65 W21G31    29.34R
Somerville     PTSUNNY   51  39  63 W13G31    29.37R
Linden         NOT AVBL
Perth Amboy      N/A     50 N/A N/A W24G33      N/A
Sussex         CLOUDY    47  36  65 W14G28    29.37R
Andover        NOT AVBL
Trenton        PTSUNNY   50  36  58 W15G31    29.43R
Millville      SUNNY     52  38  58 W22G35    29.52R
Atlantic City  SUNNY     52  38  58 W30G43    29.47R
Wrightstown    MOSUNNY   50  36  58 W21G33    29.42R
Toms River     SUNNY     50  38  63 W21G46    29.43R
Belmar         PTSUNNY   51  38  60 W20G35    29.40R
$$

PAZ047>061-062-071-191500-
EASTERN PENNSYLVANIA

CITY           SKY/WX    TMP DP  RH WIND       PRES   REMARKS
Philadelphia   MOSUNNY   51  34  52 W24G41    29.51R
Allentown      PTSUNNY   48  34  58 W17G35    29.45R
Scranton       CLOUDY    43  31  62 W18G33    29.47R
$$

CTZ002-004>006-009-010-012-RIZ004-006-007-MAZ004-011-015-191500-
SOUTHERN NEW ENGLAND
 IN CT

CITY           SKY/WX    TMP DP  RH WIND       PRES   REMARKS
Bradley INTL   LGT RAIN  57  54  89 SW12G21   29.15F
Hartford       LGT RAIN  58  56  93 W7G16     29.16F
Danbury        CLOUDY    55  45  68 W18G30    29.25R
Wtrbury/Oxford PTSUNNY   55  52  89 SW15G21   29.20R
Norwalk Harbor   N/A     55 N/A N/A W35G41      N/A
Bridgeport     CLOUDY    57  52  83 SW21G31   29.21R
Meriden        CLOUDY    57  54  89 S7        29.18F
New Haven      CLOUDY    57  53  86 SW12G22   29.21S
Chester        LGT RAIN  57  55  94 SW17G30   29.20F
Groton         HVY RAIN  58  56  93 SW25G32   29.21F FOG
Wilimantic     LGT RAIN  59  55  87 SW14G22   29.18F

 IN RI

CITY           SKY/WX    TMP DP  RH WIND       PRES   REMARKS
Providence     RAIN      59  58  96 SW17G26   29.20F FOG
Block Island   LGT RAIN  59  57  93 SW30G41     N/A  FOG
Westerly       LGT RAIN  59  58  96 SW21G30   29.22F FOG
 IN MA

CITY           SKY/WX    TMP DP  RH WIND       PRES   REMARKS
Boston         LGT RAIN  57  56  96 S14       29.17F
Worcester      LGT RAIN  55  51  86 SW16G24   29.14F
Westfield      CLOUDY    56  55  97 SW10      29.13S
Provincetown   LGT RAIN  58  56  93 SW21G33     N/A  FOG
Nantucket      LGT RAIN  59  59 100 SW25G32   29.31F FOG
$$

ANZ330-335-338-340-345-350-353-355-191500-
COASTAL MARINE OBSERVATIONS


STATION/POSITION TIME  SKY/WX   TEMP    WIND        PRES    VSBY  WAVE
                                AIR SEA DIR/SP/G                  HT/PER
                 (UTC)          (F)     (DEG/KT/KT) (MB)    (MI)  (FT/S)
NY HARB ENTRANCE 1250            60 59  240/ 25/ 31  989.5          8/ 9
20 S FIRE ISLAND 1250            60 58  220/ 29/ 39  990.3         13/ 9
GREAT SOUTH BAY  1330            54 48  230/ 17/ 23   N/A
HUDSON CANYON    1250            61 60  220/ 29/ 39  993.1         15/ 9
KINGS POINT      NOT AVBL
EXECUTION ROCKS  1345            56     240/ 21/ 37   N/A
WESTERN LI SOUND 1249            58     240/ 19/ 31   N/A           2/ 4
CENTRAL LI SOUND 1300            59     220/ 21/ 25   N/A           4
ROBBINS REEF     NOT AVBL
$$


>>>>>>>>>>>>>>>>>>>>>>>>>>>> KEY <<<<<<<<<<<<<<<<<<<<<<<<<<<
>                                                          <
>     SKY/WX - Sky Condition/Present Weather               <
>     TMP    - Temperature in Fahrenheit                   <
>     DP     - Dew Point in Fahrenheit                     <
>     RH     - Relative Humidity in Percent                <
>     WIND   - Direction (from) and Speed in MPH           <
>     PRES   - Mean Sea Level Pressure (inches of Hg)      <
>     WCI    - Wind Chill Index                            <
>     VSB    - VISIBILITY IN MILES                         <
>     HX     - HEAT INDEX                                  <
>     TC     - TEMPERATURE IN CELSIUS                      <
>     VRB    - VARIABLE WIND DIRECTION                     <
>                                                          <
>>>>>>>>>>>>>>>>>>>>>>>>>>>> KEY <<<<<<<<<<<<<<<<<<<<<<<<<<<




USA.gov is the U.S. government's official web portal to all federal, state and local government web resources and services.